Regional Weather Roundup
Issued by NWS

Home | Current Version | Previous Version | Graphics & Text | Print | Product List | Glossary On
Versions: 1 2 3 4 5 6 7 8 9 10 11 12 13 14 15 16 17 18 19 20 21 22 23 24 25 26 27 28 29 30 31 32 33 34 35 36 37 38 39 40 41 42 43 44 45 46 47 48 49 50
000
ASUS43 KMPX 312301
RWRMN
WEATHER ROUNDUP FOR MINNESOTA
NATIONAL WEATHER SERVICE TWIN CITIES/CHANHASSEN MN
600 PM CDT MON AUG 31 2015


NOTE: "FAIR" INDICATES FEW OR NO CLOUDS BELOW 12,000 FEET WITH NO
SIGNIFICANT WEATHER AND/OR OBSTRUCTIONS TO VISIBILITY. N/A MEANS
CURRENT SKY AND/OR WEATHER CONDITIONS ARE NOT AVAILABLE.

MNZ060>063-068>070-010000-
   Twin Cities Metro

CITY           SKY/WX    TMP DP  RH WIND       PRES   REMARKS
TWIN CITIES    MOSUNNY   85  69  58 S12       29.88S
ST PAUL        SUNNY     83  71  67 S13       29.88S
CRYSTAL        MOSUNNY   85  68  56 S16G23    29.86R
BLAINE         MOSUNNY   84  70  61 S17G25    29.88R
LAKEVILLE      SUNNY     81  72  74 S7        29.90R
EDEN PRAIRIE   SUNNY     84  69  60 S13       29.87R
SOUTH ST PAUL  SUNNY     84  69  59 SW10G16   29.88S
LAKE ELMO      FAIR      82  72  69 S9        29.90S
$$
MNZ001>005-007-008-013>017-022>024-027-028-010000-
   Northwest Minnesota

CITY           SKY/WX    TMP DP  RH WIND       PRES   REMARKS
BEMIDJI        CLOUDY    75  66  73 W10       29.84R
HALLOCK        PTSUNNY   81  50  34 W12       29.75S
ROSEAU         CLOUDY    77  66  69 W3        29.78R
WARROAD        CLOUDY    75  66  73 SW3       29.78R
THIEF RVR FALL CLOUDY   N/A N/A N/A SW6       29.80R
CROOKSTON      CLOUDY    81  61  50 SW7       29.81R
FOSSTON        CLOUDY    79  63  57 CALM      29.83R
DETROIT LAKES  LGT RAIN  75  66  73 NW7       29.86R
MOORHEAD       CLOUDY    79  66  65 CALM      29.84R
PARK RAPIDS    PTSUNNY   80  65  59 W7        29.84R
MAHNOMEN         N/A    N/A N/A N/A MISG      29.82F
$$
MNZ006-009>011-018-025>026-010000-
   North Central Minnesota

CITY           SKY/WX    TMP DP  RH WIND       PRES   REMARKS
BAUDETTE       CLOUDY    73  66  78 SW5       29.78S
FLAG ISLAND    CLOUDY    73  64  73 SW7       29.75R
INTL FALLS     MOSUNNY   74  66  76 W14       29.79R
WASKISH        PTSUNNY   72  66  83 SW8       29.81S
BIG FORK       MOSUNNY   81  64  57 SW13      29.82R
LONGVILLE      MOSUNNY   81  66  61 SW6       29.83R
GRAND RAPIDS     N/A     81  66  61 SW10G17   29.84R
CRANE LAKE     PTSUNNY   81  63  54 SW43      29.79R
ORR            MOSUNNY   81  61  50 SW8G20    29.78R
COOK           MOSUNNY   81  64  57 SW8G16    29.82R
WALKER         FAIR      80  65  60 SW8G17    29.82R
$$
MNZ012-019>021-037-010000-
   Northeast Minnesota

CITY           SKY/WX    TMP DP  RH WIND       PRES   REMARKS
DULUTH         MOSUNNY   79  67  66 SW15G24   29.86R
ELY            MOSUNNY   79  64  61 SW9       29.82R
HIBBING        MOSUNNY   81  64  56 S13G20    29.83R
EVELETH        SUNNY     81  66  61 SW10      29.85R
DULUTH HARBOR  SUNNY     81  72  74 SW14      29.83R
TWO HARBORS    SUNNY     81  72  74 SW9G16    29.83R
SILVER BAY     SUNNY     79  66  65 S13       29.83R
GRAND MARAIS     N/A     60  57  89 W3        29.83R
G MARAIS ARPRT SUNNY     70  61  73 S9G16     29.88S
$$
MNZ029>031-032-039>041-046>048-054>057-064-010000-
   West Central Minnesota

CITY           SKY/WX    TMP DP  RH WIND       PRES   REMARKS
FERGUS FALLS   PTSUNNY   79  66  65 W6        29.82R
WHEATON        PTSUNNY   77  64  65 W6        29.86R
MORRIS         SUNNY     86  66  51 W8        29.83R
ALEXANDRIA     MOSUNNY   83  68  60 S10       29.86R
ELBOW LAKE     FAIR      79  67  66 W8        29.84R HAZE
WADENA         PTSUNNY   81  66  61 SW7       29.83R
GLENWOOD       SUNNY     82  70  65 S12       29.86S
APPLETON       SUNNY     86  66  51 SW9       29.83R
BENSON         MOSUNNY   84  66  54 SW7       29.84R
ORTONVILLE     MOSUNNY   84  64  51 W8        29.84R
MADISON        MOSUNNY   84  68  58 SW8       29.84S
WILLMAR        FAIR      82  70  65 SW6       29.87S
$$
MNZ033>034-036-042>043-049>051-058-059-010000-
   Central Minnesota

CITY           SKY/WX    TMP DP  RH WIND       PRES   REMARKS
ST CLOUD       MOSUNNY   82  67  60 S16G22    29.86S
SAUK CENTRE    FAIR      81  69  66 S12       29.86R
PAYNESVILLE    SUNNY     81  67  63 SE10G17   29.87R
AITKIN         MOSUNNY   81  70  69 S8        29.83S
PINE RIVER     PTSUNNY   81  68  65 S7        29.87R
BRAINERD       MOSUNNY   81  67  62 S14       29.84S
STAPLES        FAIR      82  66  57 SW8G17    29.84R
LONG PRAIRIE   PTSUNNY   81  68  65 S10       29.86R
LITTLE FALLS   SUNNY     81  64  57 S10       29.86R
LITCHFIELD     SUNNY     82  72  69 S5        29.88R
BUFFALO        SUNNY     82  67  62 S7        29.88S
MAPLE LAKE     MOSUNNY   82  72  71 S6        29.88S
$$
MNZ037-044-045-052-053-010000-
   East Central Minnesota

CITY           SKY/WX    TMP DP  RH WIND       PRES   REMARKS
PRINCETON      SUNNY     82  70  65 S10G18    29.87R
MORA           SUNNY     79  64  61 S12G17    29.88S
CAMBRIDGE      MOSUNNY   84  68  58 S13G18    29.86R
RUSH CITY      MOSUNNY   82  69  65 S8G18     29.87S
MOOSE LAKE     SUNNY     79  66  65 SW13G18   29.84S
HINCKLEY       FAIR      81  70  69 S10       29.86S
CLOQUET        SUNNY     79  66  65 S8G17     29.86S
MCGREGOR       SUNNY     79  68  69 S12G20    29.86S
$$
MNZ071>073-080-081-089-090-097-098-010000-
   Southwest Minnesota

CITY           SKY/WX    TMP DP  RH WIND       PRES   REMARKS
MONTEVIDEO     PTSUNNY   84  70  61 W9        29.87R
GRANITE FALLS  MOSUNNY   82  69  64 S8        29.87R
CANBY          SUNNY     84  67  58 SW7       29.86S
MARSHALL       SUNNY     82  66  57 SW14      29.88S
REDWOOD FALLS  SUNNY     83  67  58 S14       29.86S
OLIVIA         SUNNY     79  63  57 S10G16    29.86S
PIPESTONE      SUNNY     81  70  69 SW10      29.90S
WINDOM         SUNNY     82  66  57 S12G18    29.90S
WORTHINGTON    SUNNY     79  66  65 S14       29.90F
JACKSON        SUNNY     81  68  65 S13       29.92S
TRACY          SUNNY     82  69  65 S10G17    29.89R
SLAYTON        SUNNY     80  69  68 S6        29.91R
$$
MNZ065>067-074>077-082>085-091>093-010000-
   South Central Minnesota

CITY           SKY/WX    TMP DP  RH WIND       PRES   REMARKS
MANKATO        SUNNY     82  70  65 SW13      29.90S
NEW ULM        SUNNY     82  66  57 SW15      29.88S
ST JAMES       SUNNY     82  70  65 S9        29.90S
FAIRMONT       MOSUNNY   82  66  57 S10       29.91S
GLENCOE        MOSUNNY   83  71  66 S10G17    29.88R
FARIBAULT      SUNNY     82  72  69 S7        29.91S
OWATONNA       SUNNY     82  70  65 S9        29.92S
WASECA         SUNNY     82  70  65 S6        29.92F
ALBERT LEA     SUNNY     82  70  65 S8        29.93R
$$
MNZ078>079-086>088-094>096-010000-
   Southeast Minnesota

CITY           SKY/WX    TMP DP  RH WIND       PRES   REMARKS
ROCHESTER      SUNNY     80  72  76 S9        29.95S
RED WING       MOSUNNY   84  70  61 S8        29.89S
STANTON        SUNNY     83  70  64 S5        29.89S
DODGE CENTER   SUNNY     79  72  78 S8        29.94S
WINONA         SUNNY     81  70  69 S5        29.93F
AUSTIN         SUNNY     82  72  69 S9        29.94R
PRESTON        SUNNY     80  71  72 S8        29.96F
$$
ABBREVIATIONS USED IN REMARKS
   TC - TEMPERATURES IN CELSIUS
  WCI - WIND CHILL INDEX
   HX - HEAT INDEX
  VSB - VISIBILITY
$$


USA.gov is the U.S. government's official web portal to all federal, state and local government web resources and services.